sat.trackr.live / text

‹ back to catalog

LEMUR-2-THEFALCONER

NORAD 63264 · 2025-052BG

PAYLOAD ACTIVE UNKNOWN

§ Identity

Operator
Country
US
Launch date
2025-03-15
Launch site
AFWTR
Launch vehicle
Mass (kg)
RCS (m²)

Purposes: earth_obs

External: N2YO · Heavens-Above · Gunter

§ Orbital elements

Epoch: 2026-09-19T22:51:10.672704Z

Period
96.14 min
Inclination
97.6711°
Eccentricity
0.0002947
Mean motion
14.97804176 rev/d
Perigee alt
571.6 km
Apogee alt
575.7 km
Semi-major
6,951.8 km
B*
5.1426e-5
RAAN
153.7374°
Arg perigee
53.1867°
Mean anomaly
306.9626°
Rev number
8,287

§ Raw data

LEMUR-2-THEFALCONER1 63264U 25052BG  26262.95220686  .00000546  00000+0  51426-4 0  99972 63264  97.6711 153.7374 0002947  53.1867 306.9626 14.97804176 82870

JSON: /api/v1/satellites/63264 · /tle

For live sub-satellite position, see the globe view (requires WebGL).

§ Visibility from observer

Set your observer location to see the next 7 days of passes ≥ 10°. The values pass through the URL so the page stays shareable.

No JS? Fill the form by hand. The geolocation button needs JavaScript.